This demonstration page uses our WeatherBlox Daily Observations layout. Learn more.

Left ArrowRight Arrow

38.80484, -77.04692

Hourly Observations for February 18, 2016

Temp ( °F °C ) Dew Point ( °F °C ) Humidity (%) Winds ( mph kmh ) Pressure ( in mb ) Visibility ( mi km ) Precip ( " mm )
12:52 am 00:52 Cloudy 38 3.3 23 -5 55 55 WNW 9 15 30.32 1027 10 16 0.00 0.00
1:52 am 01:52 Cloudy 37 2.8 23 -5 57 57 NW 6 9 30.33 1027 10 16 0.00 0.00
2:10 am 02:10 Partly Cloudy 36 2 23 -5 60 60 NNW 7 11 30.33 1027 10 16 0.00 0.00
2:30 am 02:30 Mostly Cloudy 36 2 21 -6 56 56 NNW 5 7 30.33 1027 10 16 0.00 0.00
2:52 am 02:52 Mostly Cloudy 37 2.8 22 -5.6 54 54 W 5 7 30.33 1027 10 16 0.00 0.00
3:52 am 03:52 Mostly Cloudy 35 1.7 23 -5 61 61 NNW 6 9 30.35 1028 10 16 0.00 0.00
4:52 am 04:52 Mostly Cloudy 35 1.7 24 -4.4 64 64 NNW 10 17 30.39 1029 10 16 0.00 0.00
5:52 am 05:52 Partly Cloudy 34 1.1 19 -7.2 54 54 NNW 14 22 30.40 1029 10 16 0.00 0.00
6:52 am 06:52 Partly Cloudy 32 0 17 -8.3 54 54 NNW 14 22 30.42 1030 10 16 0.00 0.00
7:52 am 07:52 Mostly Sunny 33 0.6 15 -9.4 47 47 NW 16 26 30.47 1032 10 16 0.00 0.00
8:52 am 08:52 Mostly Sunny 33 0.6 15 -9.4 47 47 NW 14 22 30.49 1033 10 16 0.00 0.00
9:52 am 09:52 Mostly Sunny 35 1.7 15 -9.4 44 44 NW 12 19 30.51 1033 10 16 0.00 0.00
10:52 am 10:52 Sunny 36 2.2 14 -10 40 40 NNW 16 26 30.53 1034 10 16 0.00 0.00
11:52 am 11:52 Mostly Sunny 37 2.8 12 -11.1 36 36 NW 14 22 30.52 1034 10 16 0.00 0.00
12:52 pm 12:52 Mostly Sunny 38 3.3 9 -12.8 30 30 NW 20 31 30.51 1033 10 16 0.00 0.00
1:52 pm 13:52 Sunny 39 3.9 11 -11.7 31 31 NNW 14 22 30.50 1033 10 16 0.00 0.00
2:52 pm 14:52 Mostly Sunny 39 3.9 10 -12.2 30 30 NNW 16 26 30.50 1033 10 16 0.00 0.00
3:52 pm 15:52 Mostly Sunny 39 3.9 11 -11.7 31 31 NNW 10 17 30.50 1033 10 16 0.00 0.00
4:52 pm 16:52 Mostly Sunny 38 3.3 10 -12.2 31 31 N 13 20 30.52 1034 10 16 0.00 0.00
5:52 pm 17:52 Partly Cloudy 36 2.2 10 -12.2 34 34 N 15 24 30.54 1034 10 16 0.00 0.00
6:52 pm 18:52 Partly Cloudy 34 1.1 12 -11.1 40 40 NNW 13 20 30.55 1035 10 16 0.00 0.00
7:52 pm 19:52 Partly Cloudy 33 0.6 13 -10.6 43 43 NNE 8 13 30.57 1035 10 16 0.00 0.00
8:52 pm 20:52 Clear 33 0.6 11 -11.7 40 40 NNE 12 19 30.57 1035 10 16 0.00 0.00
9:52 pm 21:52 Mostly Clear 32 0 13 -10.6 45 45 NNE 8 13 30.58 1035 10 16 0.00 0.00
10:52 pm 22:52 Clear 32 0 13 -10.6 45 45 NNE 7 11 30.58 1035 10 16 0.00 0.00
11:52 pm 23:52 Clear 31 -0.6 14 -10 49 49 NE 8 13 30.56 1035 10 16 0.00 0.00

Powered by AerisWeather